Overview Statistics Trail Chart Weather Telemetry Raw packets
 

This is the latest recevied weather packets stored in our database for station/object SQ3MKP-13. If no packets are shown the sender has not sent any weather packets the latest 10 day(s).

<< 11 12 13 14 15 16 17 >>
Time Temp. Humidity Pressure Rain* Wind** Luminosity Snow
1788523930 22.22° C 68% 998.3 hPa - - 118 W/m² -
1788523629 22.78° C 67% 998.5 hPa - - 224 W/m² -
1788523328 22.78° C 67% 998.7 hPa - - 258 W/m² -
1788523027 22.78° C 65% 998.8 hPa - - 190 W/m² -
1788522726 22.22° C 65% 998.9 hPa - - 548 W/m² -
1788522425 22.22° C 66% 998.9 hPa - - 388 W/m² -
1788522141 21.67° C 66% 999 hPa - - 311 W/m² -
1788521824 21.67° C 67% 999.1 hPa - - 276 W/m² -
1788521522 21.67° C 67% 999.3 hPa - - 77 W/m² -
1788521221 21.67° C 66% 999.3 hPa - - 90 W/m² -
1788520920 21.67° C 66% 999.4 hPa - - 127 W/m² -
1788520619 21.67° C 65% 999.6 hPa - - 127 W/m² -
1788520318 21.67° C 64% 999.6 hPa - - 167 W/m² -
1788520017 21.67° C 65% 999.9 hPa - - 234 W/m² -
1788519716 21.11° C 66% 999.9 hPa - - 305 W/m² -
1788519415 21.11° C 66% 999.9 hPa - - 69 W/m² -
1788519113 21.11° C 66% 1000 hPa - - 58 W/m² -
1788518812 21.11° C 66% 1000.1 hPa - - 63 W/m² -
1788518511 21.11° C 66% 1000.2 hPa - - 92 W/m² -
1788518210 21.11° C 67% 1000.4 hPa - - 124 W/m² -
1788517909 21.11° C 67% 1000.5 hPa - - 101 W/m² -
1788517608 21.11° C 67% 1000.7 hPa - - 113 W/m² -
1788517307 21.67° C 66% 1000.6 hPa - - 84 W/m² -
1788517006 21.67° C 65% 1000.6 hPa - - 124 W/m² -
1788516705 21.67° C 65% 1000.5 hPa - - 295 W/m² -

* Rain since midnight (hover to see other rain measurements)
** Current wind speed in m/s (hover to see current wind gust speed)